DW4736 Weather Reports


time (UTC)temp
F
wind
direction
speed
knots
gust
knots
rain 1hr
in
rain 24hr
in
rain mn
in
humidity
%
barometer
mb
20260507095837 53 255 0.0 0.0 0.01 1.20 1.20 96 1012.2
20260507095336 53 255 0.0 0.0 0.01 1.20 1.20 96 1012.2
20260507094835 53 255 0.0 0.0 0.00 1.20 1.20 96 1012.2
20260507094335 53 255 0.0 0.0 0.00 1.20 1.20 96 1012.0
20260507093851 52 255 0.0 0.0 0.00 1.20 1.20 96 1012.1
20260507093835 52 255 0.0 0.0 0.00 1.20 1.20 96 1012.0
20260507093259 52 255 0.0 0.0 0.00 1.20 1.20 96 1012.0
20260507092332 52 255 0.0 0.0 0.00 1.20 1.20 96 1011.9
20260507091833 52 255 0.0 0.0 0.00 1.20 1.20 96 1012.0
20260507091330 52 255 0.0 0.0 0.00 1.20 1.20 96 1011.8
20260507090833 53 255 0.0 0.0 0.00 1.20 1.20 96 1011.8
20260507090329 52 255 0.0 0.0 0.00 1.20 1.20 96 1011.8
20260507085828 52 255 0.0 0.0 0.00 1.20 1.20 96 1011.7
20260507085330 53 255 0.0 0.0 0.00 1.20 1.20 96 1011.7
20260507084827 53 255 0.0 0.0 0.00 1.20 1.20 96 1011.5
20260507084326 52 255 0.0 0.0 0.00 1.20 1.20 97 1011.5
20260507083827 52 255 0.0 0.0 0.00 1.20 1.20 96 1011.3
20260507083756 52 255 0.0 0.0 0.00 1.20 1.20 96 1011.3
20260507082825 52 255 0.0 0.0 0.00 1.20 1.20 96 1011.2
20260507082327 52 255 0.0 0.0 0.00 1.20 1.20 97 1011.2
20260507081836 52 255 0.0 0.0 0.00 1.20 1.20 97 1011.1
20260507081825 52 255 0.0 0.0 0.00 1.20 1.20 97 1011.1
20260507080822 52 255 0.0 0.0 0.00 1.20 1.20 97 1011.1
20260507080321 52 255 0.0 0.0 0.00 1.20 1.20 97 1011.1
20260507075821 52 255 0.0 0.0 0.00 1.20 1.20 97 1011.1
20260507075322 52 255 0.0 0.0 0.00 1.20 1.20 97 1010.9
20260507075257 52 255 0.0 0.0 0.00 1.20 1.20 97 1010.9
20260507074321 52 255 0.0 0.0 0.00 1.20 1.20 97 1010.9
20260507073820 52 255 0.0 0.0 0.01 1.20 1.20 97 1010.8
20260507073323 52 255 0.0 0.0 0.01 1.20 1.20 97 1010.7
20260507072823 52 255 0.0 0.0 0.01 1.20 1.20 97 1010.7
20260507072327 52 255 0.0 0.0 0.01 1.20 1.20 97 1010.7
20260507071821 52 255 0.0 0.0 0.01 1.20 1.20 97 1010.5
20260507071319 52 255 0.0 0.0 0.02 1.20 1.20 97 1010.5
20260507071256 52 255 0.0 0.0 0.02 1.20 1.20 97 1010.5
20260507070320 52 255 0.0 0.0 0.02 1.20 1.20 97 1010.5
20260507065819 52 255 0.0 0.0 0.02 1.19 1.20 97 1010.4
20260507065321 52 255 0.0 0.0 0.02 1.19 1.20 97 1010.4
20260507064819 52 255 0.0 0.0 0.02 1.19 1.20 97 1010.5
20260507064321 52 255 0.0 0.0 0.02 1.19 1.20 97 1010.4
20260507064243 52 255 0.0 0.0 0.02 1.19 1.19 97 1010.3
20260507063316 51 255 0.0 0.0 0.02 1.19 1.19 97 1010.3
20260507063251 52 255 0.0 0.0 0.02 1.19 1.19 97 1010.1
20260507062317 52 255 0.0 0.0 0.02 1.19 1.19 97 1010.2
20260507061814 52 255 0.0 0.0 0.02 1.19 1.19 97 1010.1
20260507061329 52 255 0.0 0.0 0.01 1.19 1.18 97 1010.0
20260507060813 52 255 0.0 0.0 0.01 1.19 1.18 97 1009.9
20260507060746 52 255 0.0 0.0 0.01 1.19 1.18 97 1009.9
20260507055813 52 255 0.0 0.0 0.01 1.18 1.18 97 1010.0
20260507055316 52 255 0.0 0.0 0.01 1.18 1.18 97 1010.0
20260507054814 52 255 0.0 0.0 0.00 1.18 1.17 97 1009.9
20260507054752 52 255 0.0 0.0 0.00 1.18 1.17 97 1009.9
20260507053813 52 255 0.0 0.0 0.01 1.18 1.17 97 1009.8
20260507053744 52 255 0.0 0.0 0.01 1.18 1.17 97 1009.7
20260507052813 52 255 0.0 0.0 0.01 1.18 1.17 97 1009.7
20260507052309 52 255 0.0 0.0 0.01 1.18 1.17 97 1009.7
20260507051811 52 255 0.0 0.0 0.02 1.18 1.17 97 1009.5
20260507051320 52 255 0.0 0.0 0.02 1.18 1.17 97 1009.4
20260507050811 52 255 0.0 0.0 0.02 1.18 1.17 97 1009.4
20260507050309 52 255 0.0 0.0 0.02 1.18 1.17 97 1009.3
20260507045807 52 255 0.0 0.0 0.03 1.15 1.17 97 1009.2
20260507045309 52 255 0.0 0.0 0.04 1.15 1.17 97 1009.2
20260507044805 52 255 0.0 0.0 0.05 1.15 1.17 97 1009.2
20260507044307 52 255 0.0 0.0 0.06 1.15 1.17 97 1009.1
20260507043805 52 255 0.0 0.0 0.06 1.15 1.17 97 1009.1
20260507043307 52 255 0.0 0.0 0.06 1.15 1.17 97 1009.0
20260507042806 52 255 0.0 0.0 0.08 1.15 1.17 97 1009.0
20260507042307 52 255 0.0 0.0 0.09 1.15 1.17 97 1009.0
20260507041807 52 255 0.0 0.0 0.08 1.15 1.16 97 1008.9
20260507041306 52 255 0.0 0.0 0.08 1.15 1.16 97 1008.8
20260507040809 52 255 0.0 0.0 0.08 1.15 1.16 97 1008.9
20260507040308 52 255 0.0 0.0 0.07 1.15 1.15 97 1008.9
20260507035809 52 255 0.0 0.0 0.06 1.09 1.13 97 1008.9
20260507035319 52 255 0.0 0.0 0.06 1.09 1.13 97 1008.8
20260507034827 52 255 0.0 0.0 0.04 1.09 1.12 97 1008.8
20260507034810 52 255 0.0 0.0 0.05 1.09 1.13 97 1008.8
20260507034800 52 255 0.0 0.0 0.03 1.09 1.11 97 1008.7
20260507033734 52 255 0.0 0.0 0.02 1.09 1.10 97 1008.7
20260507032806 52 255 0.0 0.0 0.01 1.09 1.09 97 1008.7
20260507032737 52 255 0.0 0.0 0.01 1.09 1.08 97 1008.6
20260507031805 53 255 0.0 0.0 0.01 1.09 1.08 97 1008.7
20260507031307 53 255 0.0 0.0 0.01 1.09 1.08 97 1008.7
20260507030805 53 255 0.0 0.0 0.01 1.09 1.08 97 1008.7
20260507030308 52 255 0.0 0.0 0.01 1.09 1.08 96 1008.7
20260507025807 52 255 0.0 0.0 0.01 1.08 1.08 96 1008.7
20260507025307 53 255 0.0 0.0 0.01 1.08 1.08 97 1008.7
20260507025252 52 255 0.0 0.0 0.01 1.08 1.08 97 1008.7
20260507024307 53 255 0.0 0.0 0.01 1.08 1.08 97 1008.6
20260507023847 53 255 0.0 0.0 0.01 1.08 1.08 97 1008.5
20260507023818 53 255 0.0 0.0 0.01 1.08 1.08 97 1008.5
20260507022808 53 255 0.0 0.0 0.01 1.08 1.08 97 1008.5
20260507022306 53 255 0.0 0.0 0.00 1.08 1.07 97 1008.4
20260507021810 53 255 0.0 0.0 0.00 1.08 1.07 96 1008.4
20260507021306 53 255 0.0 0.0 0.01 1.08 1.07 96 1008.3
20260507020807 53 255 0.0 0.0 0.02 1.08 1.07 96 1008.3
20260507020733 53 255 0.0 0.0 0.02 1.08 1.07 96 1008.2
20260507015811 53 255 0.0 0.0 0.03 1.06 1.07 96 1008.1
20260507015307 53 255 0.0 0.0 0.04 1.06 1.07 96 1008.2
20260507014810 53 255 0.0 0.0 0.05 1.06 1.07 96 1008.2
20260507014309 53 255 0.0 0.0 0.06 1.06 1.07 96 1008.1
20260507013807 53 255 0.0 0.0 0.08 1.06 1.07 96 1008.1
20260507013738 53 255 0.0 0.0 0.11 1.06 1.07 96 1008.0
20260507012806 53 255 0.0 0.0 0.14 1.06 1.07 96 1008.1
20260507012307 53 255 0.0 0.0 0.18 1.06 1.07 96 1008.1
20260507011806 53 255 0.0 0.0 0.20 1.06 1.07 96 1008.1
20260507011306 53 255 0.0 0.0 0.23 1.06 1.06 96 1008.0
20260507010805 53 255 0.0 0.0 0.24 1.06 1.06 96 1007.9
20260507010302 53 255 0.0 0.0 0.24 1.06 1.05 96 1007.9
20260507005804 53 255 0.0 0.0 0.25 0.80 1.04 96 1007.9
20260507005750 53 255 0.0 0.0 0.26 0.80 1.03 96 1007.8
20260507004817 53 255 0.0 0.0 0.28 0.80 1.02 96 1007.7
20260507004318 53 255 0.0 0.0 0.32 0.80 1.01 96 1007.6
20260507003301 53 255 0.0 0.0 0.43 0.80 0.95 96 1007.7
20260507002801 53 255 0.0 0.0 0.54 0.80 0.92 95 1007.7
20260507002306 53 255 0.0 0.0 0.61 0.80 0.89 95 1007.7
20260507001803 53 255 0.0 0.0 0.69 0.80 0.86 95 1007.5
20260507001326 53 255 0.0 0.0 0.73 0.80 0.81 95 1007.7
20260507001307 53 255 0.0 0.0 0.72 0.80 0.83 95 1007.5
20260507000420 53 255 0.0 0.0 0.76 0.06 0.78 95 1007.6
20260507000321 53 255 0.0 0.0 0.73 0.80 0.80 95 1007.8
20260506235254 53 255 0.0 0.0 0.76 0.06 0.76 95 1007.6
20260506234747 53 255 0.0 0.0 0.73 0.06 0.73 94 1007.5
20260506234249 53 255 0.0 0.0 0.69 0.06 0.67 94 1007.6
20260506233747 53 255 0.0 0.0 0.62 0.06 0.61 94 1007.7
20260506233248 54 255 0.0 0.0 0.52 0.06 0.50 94 1008.0
20260506232929 54 272 0.0 0.0 0.38 0.06 0.36 93 1007.7
20260506232636 55 71 0.0 0.0 0.12 0.07 0.11 93 1007.8
20260506232402 54 306 0.0 0.0 0.27 0.07 0.25 93 1007.7
20260506230750 55 23 0.0 0.0 0.09 0.08 0.08 93 1007.7
20260506230242 55 103 0.0 0.0 0.07 0.08 0.07 92 1007.5
20260506225741 55 102 0.0 0.0 0.03 0.04 0.02 92 1007.6
20260506225238 56 257 0.0 0.0 0.01 0.05 0.01 92 1007.6
20260506225219 56 282 0.0 0.0 0.01 0.06 0.01 92 1007.5
20260506224238 56 282 0.0 0.0 0.00 0.07 0.00 93 1007.3
20260506223736 56 282 0.0 0.0 0.00 0.08 0.00 93 1007.2
20260506223234 56 282 0.0 0.0 0.00 0.09 0.00 93 1007.2
20260506222734 56 282 0.0 0.0 0.00 0.09 0.00 93 1007.2
20260506222236 56 282 0.0 0.0 0.00 0.09 0.00 93 1007.2
20260506221735 57 282 0.0 0.0 0.00 0.09 0.00 93 1007.2
20260506221233 57 282 0.0 0.0 0.00 0.10 0.00 93 1007.0
20260506220734 57 282 0.0 0.0 0.00 0.10 0.00 93 1007.1
20260506220234 57 282 0.0 0.0 0.00 0.11 0.00 94 1007.1
20260506220228 57 282 0.0 0.0 0.00 0.12 0.12 94 1007.0
20260506215233 57 282 0.0 0.0 0.00 0.16 0.12 94 1007.1
20260506214730 57 282 0.0 0.0 0.00 0.18 0.12 94 1007.1
20260506214231 57 282 0.0 0.0 0.00 0.21 0.12 93 1007.0
20260506214200 57 282 0.0 0.0 0.00 0.26 0.12 93 1007.1
20260506213238 57 282 0.0 0.0 0.00 0.30 0.12 93 1007.0
20260506212736 57 282 0.0 0.0 0.00 0.35 0.12 93 1007.0
20260506212658 57 282 0.0 0.0 0.00 0.42 0.12 93 1006.9
20260506211729 57 282 0.0 0.0 0.00 0.44 0.12 93 1006.8
20260506211231 57 282 0.0 0.0 0.00 0.45 0.12 93 1006.9
20260506210732 57 282 0.0 0.0 0.00 0.46 0.12 93 1006.8
20260506210231 57 282 0.0 0.0 0.00 0.46 0.12 93 1006.7
20260506205731 57 282 0.0 0.0 0.00 0.46 0.12 93 1006.6
20260506205644 57 282 0.0 0.0 0.00 0.46 0.12 93 1006.5
20260506204731 57 282 0.0 0.0 0.00 0.46 0.12 93 1006.5
20260506204231 57 282 0.0 0.0 0.00 0.46 0.12 93 1006.5
20260506203734 57 282 0.0 0.0 0.00 0.46 0.12 93 1006.6
20260506203724 58 282 0.0 0.0 0.00 0.46 0.12 93 1006.6
20260506202732 58 282 0.0 0.0 0.00 0.46 0.12 93 1006.5
20260506202656 58 282 0.0 0.0 0.00 0.46 0.12 93 1006.6
20260506201728 58 282 0.0 0.0 0.00 0.46 0.12 93 1006.6
20260506201226 58 282 0.0 0.0 0.01 0.46 0.12 93 1006.6
20260506200750 58 282 0.0 0.0 0.01 0.46 0.12 92 1006.5
20260506200730 58 282 0.0 0.0 0.01 0.46 0.12 92 1006.4
20260506195725 58 282 0.0 0.0 0.01 0.45 0.12 92 1006.6
20260506195226 58 282 0.0 0.0 0.01 0.45 0.12 92 1006.3
20260506194724 58 282 0.0 0.0 0.01 0.45 0.12 91 1006.2
20260506194222 58 282 0.0 0.0 0.01 0.45 0.12 91 1006.2
20260506193733 59 282 0.0 0.0 0.01 0.45 0.12 91 1006.1
20260506193219 59 282 0.0 0.0 0.01 0.45 0.12 90 1006.2
20260506192717 60 282 0.0 0.0 0.01 0.45 0.12 89 1006.0
20260506192235 61 282 0.0 0.0 0.01 0.45 0.12 87 1006.0
20260506192218 60 282 0.0 0.0 0.01 0.45 0.12 88 1005.9
20260506192211 61 282 0.0 0.0 0.00 0.45 0.11 86 1005.8
20260506191711 61 282 0.0 0.0 0.00 0.45 0.11 85 1005.7
20260506191209 61 282 0.0 0.0 0.00 0.45 0.11 85 1005.7
20260506191151 61 282 0.0 0.0 0.00 0.45 0.11 84 1005.7
20260506185214 62 282 0.0 0.0 0.00 0.45 0.11 84 1005.6
20260506184711 62 282 0.0 0.0 0.00 0.45 0.11 84 1005.4
20260506184208 62 282 0.0 0.0 0.00 0.45 0.11 84 1005.5
20260506183708 62 282 0.0 0.0 0.00 0.45 0.11 84 1005.5
20260506183206 62 282 0.0 0.0 0.00 0.45 0.11 83 1005.4
20260506182708 62 282 0.0 0.0 0.00 0.45 0.11 83 1005.3
20260506182648 62 282 0.0 0.0 0.00 0.45 0.11 82 1005.2
20260506181706 62 282 0.0 0.0 0.00 0.45 0.11 83 1005.2
20260506181205 62 282 0.0 0.0 0.00 0.45 0.11 83 1005.2
20260506180748 63 282 0.0 0.0 0.00 0.45 0.11 82 1005.1
20260506180217 63 282 0.0 0.0 0.00 0.45 0.11 82 1005.1
20260506175914 63 282 0.0 0.0 0.00 0.45 0.11 83 1005.2
20260506175155 64 282 0.0 0.0 0.00 0.45 0.11 81 1005.1
20260506174232 65 282 0.0 0.0 0.00 0.45 0.11 79 1005.0
20260506174206 65 282 0.0 0.0 0.00 0.45 0.11 80 1005.0
20260506173209 65 282 0.0 0.0 0.00 0.45 0.11 77 1004.9
20260506172707 66 282 0.0 0.0 0.00 0.45 0.11 77 1004.7
20260506172205 66 282 0.0 0.0 0.00 0.45 0.11 76 1004.6
20260506172142 66 282 0.0 0.0 0.00 0.45 0.11 75 1004.7
20260506171407 67 282 0.0 0.0 0.00 0.45 0.11 74 1004.6
20260506170203 67 282 0.0 0.0 0.00 0.45 0.11 71 1004.6
20260506165700 68 282 0.0 0.0 0.00 0.45 0.11 71 1004.7
20260506165201 68 282 0.0 0.0 0.00 0.45 0.11 70 1004.6
20260506164720 68 282 0.0 0.0 0.00 0.45 0.11 70 1004.6
20260506164705 69 282 0.0 0.0 0.00 0.45 0.11 70 1004.7
20260506163702 68 282 0.0 0.0 0.00 0.45 0.11 71 1004.4
20260506163202 68 282 0.0 0.0 0.00 0.45 0.11 68 1004.5
20260506162818 69 324 0.0 0.0 0.00 0.45 0.11 67 1004.7
20260506162733 68 282 0.0 0.0 0.00 0.45 0.11 67 1004.6
20260506161703 69 18 0.0 0.0 0.00 0.45 0.11 67 1004.7
20260506161221 69 30 0.0 0.0 0.00 0.45 0.11 65 1004.7
20260506160702 70 30 0.0 0.0 0.00 0.45 0.11 65 1004.7
20260506160233 69 0 0.0 0.0 0.00 0.45 0.11 66 1004.7
20260506155701 69 0 0.0 0.0 0.00 0.45 0.11 64 1004.9
20260506155158 69 0 0.0 0.0 0.00 0.45 0.11 62 1004.9
20260506154657 69 0 0.0 0.0 0.00 0.45 0.11 62 1004.9
20260506154159 70 0 0.0 0.0 0.00 0.45 0.11 60 1004.9
20260506153657 70 0 0.0 0.0 0.00 0.45 0.11 59 1004.9
20260506153156 70 72 0.0 0.0 0.00 0.45 0.11 58 1004.9
20260506152657 71 348 0.0 0.0 0.00 0.45 0.11 55 1004.9
20260506152648 71 348 0.0 0.0 0.00 0.45 0.11 53 1004.9
20260506151657 71 72 0.0 0.0 0.00 0.45 0.11 55 1004.9
20260506151652 71 72 0.0 0.0 0.00 0.45 0.11 53 1004.9
20260506151152 72 72 0.0 0.0 0.00 0.45 0.11 52 1004.9
20260506151141 72 21 0.0 0.0 0.00 0.45 0.11 56 1004.9
20260506145655 72 3 0.0 0.0 0.00 0.45 0.11 55 1004.7
20260506145156 72 37 0.0 0.0 0.00 0.45 0.11 54 1005.0
20260506144655 71 37 0.0 0.0 0.00 0.45 0.11 54 1005.0
20260506144155 71 93 0.0 0.0 0.00 0.45 0.11 54 1005.0
20260506144139 72 93 0.0 0.0 0.00 0.45 0.11 55 1005.0
20260506143227 71 93 0.0 0.0 0.00 0.45 0.11 55 1005.1
20260506143201 71 93 0.0 0.0 0.00 0.45 0.11 57 1004.9
20260506142157 72 93 0.0 0.0 0.00 0.45 0.11 53 1005.0
20260506141654 72 93 0.0 0.0 0.00 0.45 0.11 53 1005.0
20260506141155 72 90 0.0 0.0 0.00 0.45 0.11 53 1005.1
20260506140655 72 97 0.0 0.0 0.00 0.45 0.11 53 1005.1
20260506140640 72 31 0.0 0.0 0.00 0.45 0.11 55 1005.2
20260506135653 72 0 0.0 0.0 0.00 0.45 0.11 55 1005.2
20260506135153 72 0 0.0 0.0 0.00 0.45 0.11 54 1005.2
20260506135137 72 0 0.0 0.0 0.00 0.45 0.11 54 1005.3
20260506134148 72 106 0.0 0.0 0.00 0.45 0.11 53 1005.4
20260506133648 72 97 0.0 0.0 0.00 0.45 0.11 54 1005.4
20260506133148 72 104 0.0 0.0 0.00 0.45 0.11 54 1005.5
20260506132645 72 68 0.0 0.0 0.00 0.45 0.11 55 1005.6
20260506132148 72 66 0.0 0.0 0.00 0.45 0.11 56 1005.4
20260506131650 73 104 0.0 0.0 0.00 0.45 0.11 53 1005.6
20260506131148 73 104 0.0 0.0 0.00 0.45 0.11 60 1005.6
20260506130645 71 93 0.0 0.0 0.00 0.45 0.11 55 1005.6
20260506130145 72 93 0.0 0.0 0.00 0.45 0.11 56 1005.7
20260506125652 72 85 0.0 0.0 0.00 0.45 0.11 57 1005.7
20260506125644 72 100 0.0 0.0 0.00 0.45 0.11 52 1005.6
20260506124646 72 78 0.0 0.0 0.00 0.45 0.11 57 1005.6
20260506124142 71 78 0.0 0.0 0.00 0.45 0.11 56 1005.8
20260506123639 71 78 0.0 0.0 0.00 0.45 0.11 58 1005.9
20260506123141 71 79 0.0 0.0 0.00 0.45 0.11 56 1005.9
20260506122638 70 86 0.0 0.0 0.00 0.45 0.11 57 1005.9
20260506122142 70 90 0.0 0.0 0.00 0.45 0.11 58 1005.9
20260506122133 69 93 0.0 0.0 0.00 0.45 0.11 60 1005.9
20260506121138 69 86 0.0 0.0 0.00 0.45 0.11 58 1005.9
20260506120637 70 97 0.0 0.0 0.00 0.45 0.11 56 1005.9
20260506120138 71 97 0.0 0.0 0.00 0.45 0.11 58 1005.9
20260506115636 71 86 0.0 0.0 0.00 0.45 0.11 59 1005.9
20260506115134 70 86 0.0 0.0 0.00 0.45 0.11 59 1005.9
20260506114633 69 97 0.0 0.0 0.00 0.45 0.11 56 1005.9
20260506114336 69 93 0.0 0.0 0.00 0.45 0.11 61 1005.9
20260506113131 69 106 0.0 0.0 0.00 0.45 0.11 61 1005.9
20260506112633 69 87 0.0 0.0 0.00 0.45 0.11 60 1005.9
20260506112131 69 92 0.0 0.0 0.00 0.45 0.11 61 1006.0
20260506111759 69 59 0.0 0.0 0.00 0.45 0.11 62 1006.0
20260506111746 69 59 0.0 0.0 0.00 0.45 0.11 62 1005.9
20260506111659 69 106 0.0 0.0 0.00 0.45 0.11 63 1005.9
20260506110141 68 62 0.0 0.0 0.00 0.45 0.11 63 1005.9
20260506105627 68 106 0.0 0.0 0.00 0.45 0.11 63 1006.1
20260506105128 69 86 0.0 0.0 0.00 0.45 0.11 65 1006.0
20260506104626 68 86 0.0 0.0 0.00 0.45 0.11 65 1006.0
20260506104124 69 99 0.0 0.0 0.00 0.45 0.11 64 1005.8
20260506103623 69 92 0.0 0.0 0.00 0.45 0.11 66 1005.9
20260506103124 68 93 0.0 0.0 0.00 0.45 0.11 64 1005.9
20260506102625 68 59 0.0 0.0 0.00 0.45 0.11 64 1005.9
20260506102120 67 59 0.0 0.0 0.00 0.45 0.11 67 1006.0
20260506101622 68 0 0.0 0.0 0.00 0.45 0.11 66 1006.0
20260506101557 67 73 0.0 0.0 0.00 0.45 0.11 63 1005.8
20260506100625 68 72 0.0 0.0 0.00 0.45 0.11 73 1005.8
20260506100341 67 82 0.0 0.0 0.00 0.45 0.11 72 1005.9